Location: Groß Eilstorf
(52.8200°N, 9.4552°E)
Time: 08:10:25
(UTC+00:00)

BREEZE-M DEB (TANK) - Pass Details

Date: 15 May 2026
Orbit: 262 x 12018 km, 49.5° (Epoch: 5 June)

Event Time Altitude Azimuth Distance (km) Brightness Sun altitude
Rises 21:19:00 0° 262° (W) 2,607 6.1 -13.6°
Reaches altitude 10° 21:21:36 10° 253° (WSW) 1,279 4.3 -13.8°
Enters shadow 21:23:32 33° 203° (SSW) 483 1.7 -13.9°
